STARLINK-11419, 62883

Orbit data source: Space-Track

STARLINK-11419, 62883 is a payload satellite owned by SpaceX/Seattle (US) in LEO that was launched on Tue, 04 Feb 2025 UTC via an FALCON 9 launch vehicle from the Air Force Eastern Test Range (AFETR). Payload-class satellites include a variety of spacecraft equipped with specific instruments for various scientific and technological missions. These include communications satellites like Starlink; space stations such as the ISS; scientific satellites like the Hubble; Earth observation satellites from companies like Planet Labs, Umbra, and HawkEye 360; GPS; miniature CubeSats for education and research; and military/defense satellites.

Loading next visibility...
Identifier
62883, 2025-024E
Orbit
LEO
Country
Flag of USUS
Related business
Manufacturer
SpaceX/Seattle
Mission
Operational Commercial Communications
Bus & Motor
STARLINK V2MD, Unknown motor
Mass
960 kg wet, ~910 kg dry
Launch date (UTC)
Icon of a cake. It is the launch day of the satellite!2025-02-04 (1 year ago)
Launch vehicle
FALCON 9
Launch site
Air Force Eastern Test Range (AFETR)
Object type
Payload
Rocket body
Debris
Shape & HBR
Box + 2 Pan, 18.1 m
Radar Cross Section
36.964 m², Large (>1 m²)

Expand to show TLE details & history
Last TLE update: 19 hours ago

TLE from 19 hours ago
0 STARLINK-11419
1 62883U 25024E   26034.97148446  .00358754  00000-0  26562-2 0  9993
2 62883  42.9991  24.6946 0001687 214.7960 145.2798 15.71056436 58169
Epoch: 2026-02-03T23:18Z
TLE epoch observation values (Epoch: 2026-02-03T23:18:56.257Z)
Latitude
0.00002°
Longitude
-99.18455°
Altitude
356.581 km
Speed
7.697 km/s
True Right ascension
01h 38m 46s
True Declination
0° 00' 00"
Sunlit
Object was in daylight at epoch
Visualization orbit readout
Latitude
Unknown
Longitude
Unknown
Altitude
Unknown
Speed
Unknown
Apparent Right ascension
Unknown
Apparent Declination
Unknown
Sunlit
N/A
Visualization observer readout
Local Sidereal Time
20:16:07
Azimuth
Unknown
Elevation
Unknown
Doppler factor
Unknown
Orbital elements
Apogee altitude
358.995 km
Perigee altitude
356.722 km
Semi-major axis
6,735.995 km
Eccentricity
0.00017
Inclination
42.9991°
RAAN
24.6946°
Arg. of periapsis
214.796°
True anomaly
145.29081°
Mean anomaly
145.2798°
Eccentric anomaly
145.2853°
Mean motion
3.92591 °/min
Orbital period
91.7 mins
BSTAR
0.0026562
Loading maneuver chart data...
Computing Atmospheric mass density...
Loading historical data...
Loading historical data...
Loading historical data...
Loading historical data...
Loading historical data...
Loading historical data...
Loading historical data...

Documentation

Showing up to 5 results
|